Location: Klickitat County Star Party
(45.8642°N, 120.6771°W)
Time: 15:16:04
(UTC-07:00)

SO-50 - Pass Details

Date: 28 May 2019
Orbit: 586 x 700 km, 64.6° (Epoch: 18 June)

Event Time Altitude Azimuth Distance (km) Brightness Sun altitude
Rises 03:06:37 0° 316° (NW) 3,079 ? -16.8°
Reaches altitude 10° 03:09:09 10° 308° (NW) 2,148 ? -16.6°
Maximum altitude 03:13:33 34° 244° (WSW) 1,119 ? -16.2°
Enters shadow 03:14:57 28° 210° (SSW) 1,255 ? -16.1°
